SCP
1 1 1 0 0 0 0 0 0 0 0 0 0 0 -0 0 0 0 0 0 0 0 0 0 1 1 1 1 1 1 1 1 1 1 0 0 0 0 0 1 0 0 0
1 1 1 1 0 0 0 0 0 0 0 0 0 0 0 0 0 0 0 0 0 0 0 1 1 1 1 1 1 1 1 1 1 1 1 0 0 0 0 1 1 0 0
1 1 1 1 1 1 0 0 0 0 0 0 0 0 0 0 0 0 0 0 0 1 1 1 1 1 2 2 2 2 1 1 1 2 1 1 1 0 0 1 1 0 0
1 1 1 1 1 1 1 0 0 0 0 0 0 0 0 0 0 0 0 0 1 0 1 1 1 1 2 2 2 2 2 2 2 2 1 1 1 1 1 1 1 1 0
2 2 2 1 1 1 1 1 1 0 0 0 0 0 0 0 0 0 0 1 1 1 1 1 1 1 1 2 2 2 2 2 2 2 1 1 1 1 1 1 1 1 1
1 1 2 1 1 1 1 1 1 0 0 0 0 0 0 0 0 0 0 1 1 1 1 1 1 1 1 1 0 2 2 3 2 2 2 1 1 1 1 1 1 1 1
1 1 1 1 1 1 1 1 1 0 0 0 0 0 0 0 0 0 0 1 1 1 1 1 1 1 1 1 1 2 2 3 3 3 2 1 1 1 1 1 1 1 1
1 1 1 1 1 1 1 1 1 1 1 0 1 0 0 0 0 0 0 1 1 1 1 1 1 1 1 1 2 1 1 3 3 2 2 1 1 1 1 1 1 1 0
0 1 1 1 1 1 1 1 1 1 1 1 0 1 0 0 0 0 0 0 0 1 1 1 1 1 1 1 1 1 1 1 1 1 1 1 1 1 1 1 0 0 0
0 0 0 0 1 1 1 2 2 1 1 1 1 0 1 0 0 0 0 0 0 0 1 1 1 1 1 1 0 1 1 1 1 1 1 1 1 0 0 1 0 0 0
0 0 0 0 0 0 1 1 1 1 1 1 1 1 0 0 0 0 0 0 1 1 1 1 1 2 2 2 1 1 1 0 0 0 0 0 0 0 0 0 0 -0 -0
0 0 0 0 0 0 0 0 1 1 1 1 1 1 1 1 0 1 1 0 0 0 0 1 1 1 2 2 1 1 1 0 0 0 0 0 0 0 0 0 0 0 -0
0 0 0 0 0 0 0 0 0 1 1 1 1 1 1 1 1 0 0 0 0 0 0 0 1 1 1 1 1 0 0 0 0 0 0 0 0 0 0 0 0 0 0
0 0 0 -0 -0 -0 0 0 0 0 1 0 1 1 1 1 0 0 0 0 0 0 0 0 0 0 0 -0 0 0 0 0 0 0 0 0 0 0 0 0 0 0 0
0 0 0 0 -0 0 0 0 0 0 0 0 0 1 1 1 0 0 0 0 0 0 0 0 0 0 0 0 0 0 0 0 0 0 0 0 0 0 0 0 0 0 0
0 0 0 0 0 0 0 0 0 0 0 0 0 0 1 0 0 0 0 0 0 0 0 0 0 0 0 0 0 0 0 0 0 0 0 0 0 0 0 0 0 0 0
0 0 0 0 0 0 0 0 0 0 0 0 0 0 0 0 0 0 0 0 0 0 0 0 0 0 0 0 0 0 0 0 0 0 0 0 0 0 0 0 0 0 0
0 0 0 0 0 0 0 0 0 0 0 0 0 0 0 0 0 0 0 0 0 0 0 0 0 0 0 0 0 0 0 0 0 0 0 0 0 0 0 0 0 0 0
0 0 0 0 0 0 0 0 0 0 0 0 0 0 0 0 0 0 0 0 0 0 0 0 0 0 0 0 0 0 0 0 0 0 0 0 0 0 0 0 0 0 0
0 0 0 0 0 0 0 0 0 -0 -0 -0 0 0 0 0 0 0 0 0 0 0 0 0 0 0 0 0 0 0 0 0 0 0 0 0 0 0 0 0 0 0 0
0 0 0 0 0 0 0 0 0 -0 -0 -0 -0 0 0 0 0 0 0 0 0 0 0 0 0 0 0 0 0 0 0 0 0 0 0 0 0 0 0 0 0 0 0
0 0 0 0 0 0 0 0 0 0 -0 -0 -0 0 0 0 0 0 0 0 0 0 0 0 0 0 0 0 0 0 0 0 0 0 0 0 0 0 0 0 0 0 0
0 0 0 0 0 0 0 0 0 0 -0 -0 -0 0 0 0 0 0 0 0 0 0 0 0 0 0 0 0 0 0 0 0 0 0 0 0 0 0 0 0 0 0 0
0 0 0 0 0 0 0 0 0 0 -0 0 0 0 0 0 0 0 0 0 0 0 0 0 0 0 0 0 0 0 0 0 0 0 0 0 0 0 0 0 0 0 0
0 0 0 0 0 0 0 0 0 0 -0 0 0 0 0 0 0 0 0 0 0 0 0 0 0 0 0 0 0 0 0 0 0 0 0 0 0 0 0 0 0 0 0
0 0 0 0 0 0 0 0 -0 -0 -0 0 0 0 0 0 0 -0 -0 -0 0 0 0 0 0 0 0 0 0 0 0 0 0 0 0 0 0 0 0 0 0 0 0
Wind_Speed_500mb
58 58 60 58 59 53 55 56 57 56 57 56 55 54 52 50 49 44 43 43 41 41 37 32 26 27 29 33 32 32 29 28 26 26 25 25 26 25 25 27 27 27 32
55 58 63 65 66 64 63 62 62 66 63 64 63 62 60 58 54 53 52 51 48 41 41 37 30 32 35 36 38 37 33 31 29 29 28 27 26 27 27 27 28 31 30
43 50 60 63 67 69 69 69 71 70 70 71 72 70 68 63 60 58 57 59 59 52 47 45 42 40 41 43 42 42 38 34 33 32 30 30 29 28 32 31 32 33 35
50 54 57 61 61 63 66 72 73 75 76 76 75 74 73 67 66 64 61 64 66 56 56 53 52 49 49 45 46 46 44 38 37 34 31 29 28 31 31 35 35 37 39
51 55 59 63 66 67 67 65 68 74 80 81 79 76 68 73 73 72 67 63 62 64 62 62 60 52 54 41 48 50 50 47 43 38 35 32 33 34 32 35 36 40 42
54 59 61 64 61 74 78 75 77 77 76 80 83 80 78 74 76 81 77 71 72 71 68 70 71 64 58 57 58 56 54 54 50 45 43 40 36 31 29 31 45 43 49
54 57 61 64 65 68 74 79 85 87 89 85 87 88 87 84 82 82 82 78 76 76 74 69 70 66 64 59 61 56 58 61 55 53 48 49 45 38 39 49 70 72 62
43 46 52 59 62 63 71 74 80 91 95 90 91 84 80 79 90 94 90 88 86 84 83 79 74 73 66 63 63 64 63 66 66 58 57 59 52 54 59 70 70 65 67
49 50 49 48 48 49 60 73 76 80 87 92 94 78 37 56 80 80 87 90 94 90 89 88 83 77 72 67 66 70 64 65 71 68 62 56 51 52 62 68 65 55 58
51 52 55 57 55 56 55 60 61 66 74 88 87 90 91 92 84 68 71 69 75 79 94 101 96 88 83 77 74 73 69 63 66 65 60 56 54 59 59 66 54 51 52
44 43 45 51 56 59 59 58 58 60 65 71 83 91 93 88 99 100 83 86 85 73 72 80 101 90 88 86 85 76 74 70 66 62 63 62 65 67 68 47 43 48 47
49 53 57 61 63 60 62 57 56 60 61 67 71 80 92 79 79 87 84 93 82 77 79 85 74 80 90 90 94 84 77 69 63 64 65 61 68 51 40 41 49 49 46
53 54 59 63 64 59 52 54 57 56 53 60 70 69 77 90 80 75 54 35 23 50 80 85 81 82 84 81 101 99 82 70 65 68 64 66 51 39 39 43 45 42 43
56 58 59 61 54 54 54 50 52 57 60 61 66 66 70 71 78 48 44 10 38 45 49 58 58 57 80 80 92 87 74 72 68 68 63 51 42 40 40 42 43 42 43
58 59 57 59 58 55 55 56 53 54 57 62 65 72 75 74 75 76 89 89 71 42 52 96 91 89 69 67 79 75 75 75 72 64 54 47 42 43 41 43 44 44 42
60 58 60 57 58 65 63 62 60 59 59 59 62 68 75 76 79 80 74 75 88 88 81 86 51 70 89 87 66 74 80 73 61 53 53 45 46 46 45 46 46 46 44
58 64 63 61 63 65 67 67 68 66 64 57 59 67 75 82 80 85 78 81 97 86 95 103 96 88 82 105 68 61 58 55 51 45 44 45 45 42 43 42 46 43 42
59 62 62 67 67 66 63 64 67 68 69 72 81 83 80 83 90 90 97 100 102 99 95 105 95 88 102 86 59 62 59 51 49 49 47 46 44 41 39 40 39 39 37
68 67 66 64 65 61 62 65 66 70 73 75 78 75 84 82 96 94 95 99 104 99 96 84 76 65 70 88 65 60 48 48 47 42 40 43 40 36 34 34 31 32 31
68 67 71 70 63 60 58 65 62 71 73 78 93 96 93 83 93 92 91 86 86 89 79 70 73 62 49 48 53 50 46 44 42 40 45 45 42 40 31 34 35 35 31
101 90 76 63 64 58 61 62 60 68 77 85 96 80 85 83 83 76 67 78 74 60 66 74 83 62 55 44 47 43 40 33 35 37 34 36 40 35 33 33 37 38 37
98 99 98 83 65 56 56 58 63 69 79 90 91 86 64 68 57 57 52 58 47 46 60 63 66 66 60 51 45 44 37 36 44 42 38 42 45 45 41 42 42 40 37
66 71 75 79 80 57 50 54 55 66 72 87 71 56 49 57 56 51 40 49 40 32 35 41 46 52 55 47 41 40 44 47 49 40 40 48 48 48 41 39 40 39 36
71 64 70 66 74 62 49 52 53 64 62 62 24 45 49 53 60 55 59 63 39 37 38 35 31 37 34 36 34 37 39 39 41 39 41 45 40 36 35 38 37 36 37
65 55 55 60 56 70 58 48 54 52 48 24 20 20 31 33 40 47 40 42 46 40 39 34 30 27 25 23 26 30 31 34 38 40 40 42 37 30 31 32 29 27 36
62 68 58 50 64 58 54 46 47 36 24 7 28 37 30 30 37 42 52 54 46 36 27 21 17 15 15 21 28 31 33 40 36 37 35 33 24 19 14 32 38 36 44
Wind_Direction_500mb
247 251 254 254 257 254 251 252 254 251 251 251 252 251 248 248 244 244 244 238 242 246 247 249 263 274 272 270 272 269 268 271 278 284 292 294 294 293 291 285 281 274 269
260 259 258 259 259 260 261 263 261 261 259 260 257 257 256 254 253 248 248 243 245 251 248 247 254 266 270 271 268 266 263 268 273 276 280 282 285 290 291 293 289 282 277
274 273 268 268 269 268 266 265 266 266 264 265 265 263 264 265 260 254 254 249 247 247 250 253 258 261 265 270 267 264 261 264 269 268 270 275 278 284 289 290 292 290 286
268 272 272 273 276 276 274 269 268 266 266 266 266 267 267 265 261 259 260 253 252 253 251 255 259 263 264 272 272 268 260 260 266 264 261 268 276 280 283 285 287 288 289
273 273 274 275 277 277 276 276 273 269 269 268 269 268 268 260 259 261 256 256 256 255 257 259 260 257 253 260 267 265 260 253 255 249 250 253 258 267 281 291 289 293 285
282 284 286 285 278 272 275 275 275 273 273 272 271 271 268 266 260 257 253 256 255 254 253 256 257 254 253 253 257 265 257 248 247 244 246 257 267 277 281 298 308 294 291
278 278 280 284 286 286 279 273 274 277 275 273 270 270 269 268 266 263 258 255 252 252 252 251 252 254 257 259 261 263 265 252 245 247 256 263 270 278 286 297 298 287 280
282 281 280 280 281 283 283 284 282 274 273 273 269 264 267 270 265 260 258 257 256 258 253 250 250 253 255 260 264 262 269 255 249 256 267 269 274 284 286 300 300 282 278
284 288 290 291 292 294 290 286 282 282 280 275 271 257 256 252 266 264 262 261 261 259 257 254 252 253 253 261 262 265 267 260 255 264 272 270 273 286 292 300 301 284 284
293 292 289 292 297 296 292 289 292 291 286 280 276 266 261 257 261 265 261 265 272 268 262 259 256 254 255 259 257 263 264 265 263 267 270 265 275 291 299 301 301 295 288
298 300 311 310 303 299 299 297 289 290 289 288 280 280 269 260 255 255 262 264 261 265 273 272 258 255 256 256 258 261 262 261 264 272 272 265 276 286 295 295 306 300 290
301 302 309 310 311 304 295 291 298 287 286 282 280 277 271 260 265 259 257 265 265 267 272 270 271 262 261 256 256 261 261 256 261 268 272 267 281 280 279 298 298 299 296
290 293 299 309 309 311 306 295 288 292 286 287 282 275 272 270 276 266 266 254 296 294 270 263 266 270 270 271 256 258 258 256 259 269 270 278 270 262 284 301 296 289 297
286 294 302 308 312 310 311 304 294 290 292 282 281 280 276 269 264 252 220 277 291 301 333 277 267 265 263 275 259 250 247 253 257 262 272 263 250 264 286 300 297 292 296
285 292 298 306 311 314 312 305 308 301 291 287 283 278 277 270 257 253 263 247 235 258 287 280 262 253 250 271 263 256 252 253 255 261 251 247 253 268 282 294 296 291 289
286 289 293 298 303 307 318 315 306 304 308 293 285 280 272 267 262 258 257 243 234 261 241 239 239 248 227 253 261 255 255 257 251 239 247 247 256 266 277 282 286 292 289
283 286 287 292 296 300 305 312 313 306 306 304 296 288 279 269 260 251 248 250 249 246 241 249 252 252 247 242 252 252 241 241 240 237 236 249 259 267 273 281 287 285 284
272 278 281 288 290 293 299 302 307 304 303 295 301 292 279 272 259 255 255 253 251 241 244 247 252 254 243 228 237 233 243 235 235 236 242 249 253 262 273 279 281 278 282
263 262 269 275 284 287 289 292 299 302 301 297 299 288 280 272 261 254 250 249 250 251 249 246 237 235 233 221 228 232 229 229 234 239 242 244 249 251 262 264 273 275 278
273 268 264 265 273 283 284 287 296 303 304 304 300 286 281 266 257 253 252 252 247 241 238 226 219 221 207 228 213 218 217 220 232 241 244 243 244 248 249 243 259 277 271
275 270 269 270 263 270 281 287 296 302 304 297 305 291 273 260 255 251 248 239 232 227 214 215 212 219 218 211 210 213 219 232 239 236 236 242 241 246 247 254 263 266 260
279 272 265 265 270 262 278 287 296 301 302 296 295 286 263 253 241 231 228 237 211 199 204 205 202 202 221 218 212 218 227 232 240 237 239 243 250 252 255 259 260 258 262
281 274 270 262 261 258 270 283 292 293 297 302 294 272 250 230 210 204 230 195 182 200 203 199 204 218 216 211 222 235 240 243 249 250 248 251 249 256 260 257 253 252 254
283 272 264 265 257 251 264 276 288 294 296 306 284 239 230 211 208 213 196 181 191 176 195 204 208 207 205 212 221 230 234 241 247 245 249 253 253 261 262 257 244 246 242
271 282 268 260 257 249 259 268 282 291 305 275 1 134 155 168 173 183 198 150 161 162 168 167 174 181 187 203 222 231 236 243 248 249 240 251 262 262 260 248 239 235 224
273 271 272 259 258 245 251 253 268 288 281 349 49 91 112 128 135 149 153 162 153 146 151 159 173 194 219 240 250 254 254 250 251 254 245 238 239 242 244 245 237 228 222
Wind_Speed_850mb
58 58 60 58 59 53 55 56 57 56 57 56 55 54 52 50 49 44 43 43 41 41 37 32 26 27 29 33 32 32 29 28 26 26 25 25 26 25 25 27 27 27 32
55 58 63 65 66 64 63 62 62 66 63 64 63 62 60 58 54 53 52 51 48 41 41 37 30 32 35 36 38 37 33 31 29 29 28 27 26 27 27 27 28 31 30
43 50 60 63 67 69 69 69 71 70 70 71 72 70 68 63 60 58 57 59 59 52 47 45 42 40 41 43 42 42 38 34 33 32 30 30 29 28 32 31 32 33 35
50 54 57 61 61 63 66 72 73 75 76 76 75 74 73 67 66 64 61 64 66 56 56 53 52 49 49 45 46 46 44 38 37 34 31 29 28 31 31 35 35 37 39
51 55 59 63 66 67 67 65 68 74 80 81 79 76 68 73 73 72 67 63 62 64 62 62 60 52 54 41 48 50 50 47 43 38 35 32 33 34 32 35 36 40 42
54 59 61 64 61 74 78 75 77 77 76 80 83 80 78 74 76 81 77 71 72 71 68 70 71 64 58 57 58 56 54 54 50 45 43 40 36 31 29 31 45 43 49
54 57 61 64 65 68 74 79 85 87 89 85 87 88 87 84 82 82 82 78 76 76 74 69 70 66 64 59 61 56 58 61 55 53 48 49 45 38 39 49 70 72 62
43 46 52 59 62 63 71 74 80 91 95 90 91 84 80 79 90 94 90 88 86 84 83 79 74 73 66 63 63 64 63 66 66 58 57 59 52 54 59 70 70 65 67
49 50 49 48 48 49 60 73 76 80 87 92 94 78 37 56 80 80 87 90 94 90 89 88 83 77 72 67 66 70 64 65 71 68 62 56 51 52 62 68 65 55 58
51 52 55 57 55 56 55 60 61 66 74 88 87 90 91 92 84 68 71 69 75 79 94 101 96 88 83 77 74 73 69 63 66 65 60 56 54 59 59 66 54 51 52
44 43 45 51 56 59 59 58 58 60 65 71 83 91 93 88 99 100 83 86 85 73 72 80 101 90 88 86 85 76 74 70 66 62 63 62 65 67 68 47 43 48 47
49 53 57 61 63 60 62 57 56 60 61 67 71 80 92 79 79 87 84 93 82 77 79 85 74 80 90 90 94 84 77 69 63 64 65 61 68 51 40 41 49 49 46
53 54 59 63 64 59 52 54 57 56 53 60 70 69 77 90 80 75 54 35 23 50 80 85 81 82 84 81 101 99 82 70 65 68 64 66 51 39 39 43 45 42 43
56 58 59 61 54 54 54 50 52 57 60 61 66 66 70 71 78 48 44 10 38 45 49 58 58 57 80 80 92 87 74 72 68 68 63 51 42 40 40 42 43 42 43
58 59 57 59 58 55 55 56 53 54 57 62 65 72 75 74 75 76 89 89 71 42 52 96 91 89 69 67 79 75 75 75 72 64 54 47 42 43 41 43 44 44 42
60 58 60 57 58 65 63 62 60 59 59 59 62 68 75 76 79 80 74 75 88 88 81 86 51 70 89 87 66 74 80 73 61 53 53 45 46 46 45 46 46 46 44
58 64 63 61 63 65 67 67 68 66 64 57 59 67 75 82 80 85 78 81 97 86 95 103 96 88 82 105 68 61 58 55 51 45 44 45 45 42 43 42 46 43 42
59 62 62 67 67 66 63 64 67 68 69 72 81 83 80 83 90 90 97 100 102 99 95 105 95 88 102 86 59 62 59 51 49 49 47 46 44 41 39 40 39 39 37
68 67 66 64 65 61 62 65 66 70 73 75 78 75 84 82 96 94 95 99 104 99 96 84 76 65 70 88 65 60 48 48 47 42 40 43 40 36 34 34 31 32 31
68 67 71 70 63 60 58 65 62 71 73 78 93 96 93 83 93 92 91 86 86 89 79 70 73 62 49 48 53 50 46 44 42 40 45 45 42 40 31 34 35 35 31
101 90 76 63 64 58 61 62 60 68 77 85 96 80 85 83 83 76 67 78 74 60 66 74 83 62 55 44 47 43 40 33 35 37 34 36 40 35 33 33 37 38 37
98 99 98 83 65 56 56 58 63 69 79 90 91 86 64 68 57 57 52 58 47 46 60 63 66 66 60 51 45 44 37 36 44 42 38 42 45 45 41 42 42 40 37
66 71 75 79 80 57 50 54 55 66 72 87 71 56 49 57 56 51 40 49 40 32 35 41 46 52 55 47 41 40 44 47 49 40 40 48 48 48 41 39 40 39 36
71 64 70 66 74 62 49 52 53 64 62 62 24 45 49 53 60 55 59 63 39 37 38 35 31 37 34 36 34 37 39 39 41 39 41 45 40 36 35 38 37 36 37
65 55 55 60 56 70 58 48 54 52 48 24 20 20 31 33 40 47 40 42 46 40 39 34 30 27 25 23 26 30 31 34 38 40 40 42 37 30 31 32 29 27 36
62 68 58 50 64 58 54 46 47 36 24 7 28 37 30 30 37 42 52 54 46 36 27 21 17 15 15 21 28 31 33 40 36 37 35 33 24 19 14 32 38 36 44
Wind_Direction_850mb
247 251 254 254 257 254 251 252 254 251 251 251 252 251 248 248 244 244 244 238 242 246 247 249 263 274 272 270 272 269 268 271 278 284 292 294 294 293 291 285 281 274 269
260 259 258 259 259 260 261 263 261 261 259 260 257 257 256 254 253 248 248 243 245 251 248 247 254 266 270 271 268 266 263 268 273 276 280 282 285 290 291 293 289 282 277
274 273 268 268 269 268 266 265 266 266 264 265 265 263 264 265 260 254 254 249 247 247 250 253 258 261 265 270 267 264 261 264 269 268 270 275 278 284 289 290 292 290 286
268 272 272 273 276 276 274 269 268 266 266 266 266 267 267 265 261 259 260 253 252 253 251 255 259 263 264 272 272 268 260 260 266 264 261 268 276 280 283 285 287 288 289
273 273 274 275 277 277 276 276 273 269 269 268 269 268 268 260 259 261 256 256 256 255 257 259 260 257 253 260 267 265 260 253 255 249 250 253 258 267 281 291 289 293 285
282 284 286 285 278 272 275 275 275 273 273 272 271 271 268 266 260 257 253 256 255 254 253 256 257 254 253 253 257 265 257 248 247 244 246 257 267 277 281 298 308 294 291
278 278 280 284 286 286 279 273 274 277 275 273 270 270 269 268 266 263 258 255 252 252 252 251 252 254 257 259 261 263 265 252 245 247 256 263 270 278 286 297 298 287 280
282 281 280 280 281 283 283 284 282 274 273 273 269 264 267 270 265 260 258 257 256 258 253 250 250 253 255 260 264 262 269 255 249 256 267 269 274 284 286 300 300 282 278
284 288 290 291 292 294 290 286 282 282 280 275 271 257 256 252 266 264 262 261 261 259 257 254 252 253 253 261 262 265 267 260 255 264 272 270 273 286 292 300 301 284 284
293 292 289 292 297 296 292 289 292 291 286 280 276 266 261 257 261 265 261 265 272 268 262 259 256 254 255 259 257 263 264 265 263 267 270 265 275 291 299 301 301 295 288
298 300 311 310 303 299 299 297 289 290 289 288 280 280 269 260 255 255 262 264 261 265 273 272 258 255 256 256 258 261 262 261 264 272 272 265 276 286 295 295 306 300 290
301 302 309 310 311 304 295 291 298 287 286 282 280 277 271 260 265 259 257 265 265 267 272 270 271 262 261 256 256 261 261 256 261 268 272 267 281 280 279 298 298 299 296
290 293 299 309 309 311 306 295 288 292 286 287 282 275 272 270 276 266 266 254 296 294 270 263 266 270 270 271 256 258 258 256 259 269 270 278 270 262 284 301 296 289 297
286 294 302 308 312 310 311 304 294 290 292 282 281 280 276 269 264 252 220 277 291 301 333 277 267 265 263 275 259 250 247 253 257 262 272 263 250 264 286 300 297 292 296
285 292 298 306 311 314 312 305 308 301 291 287 283 278 277 270 257 253 263 247 235 258 287 280 262 253 250 271 263 256 252 253 255 261 251 247 253 268 282 294 296 291 289
286 289 293 298 303 307 318 315 306 304 308 293 285 280 272 267 262 258 257 243 234 261 241 239 239 248 227 253 261 255 255 257 251 239 247 247 256 266 277 282 286 292 289
283 286 287 292 296 300 305 312 313 306 306 304 296 288 279 269 260 251 248 250 249 246 241 249 252 252 247 242 252 252 241 241 240 237 236 249 259 267 273 281 287 285 284
272 278 281 288 290 293 299 302 307 304 303 295 301 292 279 272 259 255 255 253 251 241 244 247 252 254 243 228 237 233 243 235 235 236 242 249 253 262 273 279 281 278 282
263 262 269 275 284 287 289 292 299 302 301 297 299 288 280 272 261 254 250 249 250 251 249 246 237 235 233 221 228 232 229 229 234 239 242 244 249 251 262 264 273 275 278
273 268 264 265 273 283 284 287 296 303 304 304 300 286 281 266 257 253 252 252 247 241 238 226 219 221 207 228 213 218 217 220 232 241 244 243 244 248 249 243 259 277 271
275 270 269 270 263 270 281 287 296 302 304 297 305 291 273 260 255 251 248 239 232 227 214 215 212 219 218 211 210 213 219 232 239 236 236 242 241 246 247 254 263 266 260
279 272 265 265 270 262 278 287 296 301 302 296 295 286 263 253 241 231 228 237 211 199 204 205 202 202 221 218 212 218 227 232 240 237 239 243 250 252 255 259 260 258 262
281 274 270 262 261 258 270 283 292 293 297 302 294 272 250 230 210 204 230 195 182 200 203 199 204 218 216 211 222 235 240 243 249 250 248 251 249 256 260 257 253 252 254
283 272 264 265 257 251 264 276 288 294 296 306 284 239 230 211 208 213 196 181 191 176 195 204 208 207 205 212 221 230 234 241 247 245 249 253 253 261 262 257 244 246 242
271 282 268 260 257 249 259 268 282 291 305 275 1 134 155 168 173 183 198 150 161 162 168 167 174 181 187 203 222 231 236 243 248 249 240 251 262 262 260 248 239 235 224
273 271 272 259 258 245 251 253 268 288 281 349 49 91 112 128 135 149 153 162 153 146 151 159 173 194 219 240 250 254 254 250 251 254 245 238 239 242 244 245 237 228 222